Tracking 18852 objects as of 24-Nov-2017
HD Live streaming from Space Station
objects crossing your sky now

SAUDICOMSAT 3

Track SAUDICOMSAT 3 now!
10-day predictions
SAUDICOMSAT 3 is classified as:


NORAD ID: 31125
Int'l Code: 2007-012J
Perigee: 654.0 km
Apogee: 714.1 km
Inclination: 97.9 °
Period: 98.3 minutes
Semi major axis: 7055 km
RCS: 0.082 m2 (small)
Launch date: April 17, 2007
Source: Saudi Arabia (SAUD)
Launch site: TYURATAM MISSILE AND SPACE COMPLEX (TTMTR)
aabbcc
Your satellite tracking list
Your tracking list is empty




NASA's NSSDC Master Catalog

Two Line Element Set (TLE):
1 31125U 07012J   17327.96032864 +.00000128 +00000-0 +32393-4 0  9995
2 31125 097.8924 294.0112 0042619 210.2705 149.6036 14.65042085566473
Source of the keplerian elements: AFSPC